Time,TemperatureF,DewpointF,PressureIn,WindDirection,WindDirectionDegrees,WindSpeedMPH,WindSpeedGustMPH,Humidity,HourlyPrecipIn,Conditions,Clouds,dailyrainin,SolarRadiationWatts/m^2,SoftwareType,DateUTC
2013-02-24 00:03:00,15.6,7.3,30.30,SE,124,8.0,17.0,69,0.00,,,0.00,0,WeatherCatV1.14B232,2013-02-24 08:03:00,
2013-02-24 00:08:00,15.6,7.3,30.30,SSE,157,13.0,18.0,69,0.00,,,0.00,0,WeatherCatV1.14B232,2013-02-24 08:08:00,
2013-02-24 00:13:00,15.6,7.3,30.30,East,99,7.0,15.0,69,0.00,,,0.00,0,WeatherCatV1.14B232,2013-02-24 08:13:00,
2013-02-24 00:18:00,15.6,7.3,30.30,ESE,104,5.0,10.0,69,0.00,,,0.00,0,WeatherCatV1.14B232,2013-02-24 08:18:00,
2013-02-24 00:23:00,15.6,7.3,30.30,East,93,12.0,16.0,69,0.00,,,0.00,0,WeatherCatV1.14B232,2013-02-24 08:23:00,
2013-02-24 00:28:00,15.6,7.3,30.30,SE,146,9.0,12.0,69,0.00,,,0.00,0,WeatherCatV1.14B232,2013-02-24 08:28:00,
2013-02-24 00:33:00,15.4,7.1,30.30,East,90,6.0,20.0,69,0.00,,,0.00,0,WeatherCatV1.14B232,2013-02-24 08:33:00,
2013-02-24 00:38:00,15.4,7.4,30.30,East,100,18.0,18.0,70,0.00,,,0.00,0,WeatherCatV1.14B232,2013-02-24 08:38:00,
2013-02-24 00:43:00,15.2,7.2,30.30,SSE,165,7.0,18.0,70,0.00,,,0.00,0,WeatherCatV1.14B232,2013-02-24 08:43:00,
2013-02-24 00:48:00,15.1,7.1,30.30,SE,133,15.0,22.0,70,0.00,,,0.00,0,WeatherCatV1.14B232,2013-02-24 08:48:00,
2013-02-24 00:53:00,15.1,7.1,30.30,SSE,164,10.0,22.0,70,0.00,,,0.00,0,WeatherCatV1.14B232,2013-02-24 08:53:00,
2013-02-24 00:58:00,15.1,7.1,30.30,SSE,150,11.0,11.0,70,0.00,,,0.00,0,WeatherCatV1.14B232,2013-02-24 08:58:00,
2013-02-24 01:03:00,15.1,7.1,30.30,SE,139,10.0,22.0,70,0.00,,,0.00,0,WeatherCatV1.14B232,2013-02-24 09:03:00,
2013-02-24 01:08:00,14.9,6.9,30.30,SE,138,5.0,21.0,70,0.00,,,0.00,0,WeatherCatV1.14B232,2013-02-24 09:08:00,
2013-02-24 01:13:00,14.9,6.9,30.30,ESE,118,8.0,16.0,70,0.00,,,0.00,0,WeatherCatV1.14B232,2013-02-24 09:13:00,
2013-02-24 01:18:00,14.9,6.9,30.30,SE,143,7.0,14.0,70,0.00,,,0.00,0,WeatherCatV1.14B232,2013-02-24 09:18:00,
2013-02-24 01:23:00,15.1,7.1,30.30,East,96,10.0,18.0,70,0.00,,,0.00,0,WeatherCatV1.14B232,2013-02-24 09:23:00,
2013-02-24 01:28:00,14.8,7.1,30.30,SE,137,9.0,15.0,71,0.00,,,0.00,0,WeatherCatV1.14B232,2013-02-24 09:28:00,
2013-02-24 01:33:00,14.6,6.9,30.30,ESE,112,10.0,19.0,71,0.00,,,0.00,0,WeatherCatV1.14B232,2013-02-24 09:33:00,
2013-02-24 01:38:00,14.6,6.9,30.30,ESE,120,6.0,16.0,71,0.00,,,0.00,0,WeatherCatV1.14B232,2013-02-24 09:38:00,
2013-02-24 01:43:00,14.6,6.9,30.30,SSE,149,12.0,22.0,71,0.00,,,0.00,0,WeatherCatV1.14B232,2013-02-24 09:43:00,
2013-02-24 01:48:00,14.9,6.9,30.30,ESE,117,11.0,18.0,70,0.00,,,0.00,0,WeatherCatV1.14B232,2013-02-24 09:48:00,
2013-02-24 01:53:00,15.1,7.1,30.30,ESE,112,14.0,19.0,70,0.00,,,0.00,0,WeatherCatV1.14B232,2013-02-24 09:53:00,
2013-02-24 01:58:00,14.9,6.9,30.30,ESE,122,11.0,18.0,70,0.00,,,0.00,0,WeatherCatV1.14B232,2013-02-24 09:58:00,
2013-02-24 02:03:00,14.8,7.4,30.30,SSE,149,5.0,17.0,72,0.00,,,0.00,0,WeatherCatV1.14B232,2013-02-24 10:03:00,
2013-02-24 02:08:00,14.8,7.1,30.30,ESE,103,13.0,16.0,71,0.00,,,0.00,0,WeatherCatV1.14B232,2013-02-24 10:08:00,
2013-02-24 02:13:00,14.8,7.1,30.30,SSE,147,12.0,16.0,71,0.00,,,0.00,0,WeatherCatV1.14B232,2013-02-24 10:13:00,
2013-02-24 02:18:00,14.9,7.2,30.32,SSE,150,10.0,16.0,71,0.00,,,0.00,0,WeatherCatV1.14B232,2013-02-24 10:18:00,
2013-02-24 02:23:00,14.9,7.2,30.32,ESE,118,4.0,15.0,71,0.00,,,0.00,0,WeatherCatV1.14B232,2013-02-24 10:23:00,
2013-02-24 02:28:00,14.9,6.9,30.32,ESE,121,10.0,15.0,70,0.00,,,0.00,0,WeatherCatV1.14B232,2013-02-24 10:28:00,
2013-02-24 02:33:00,14.9,6.9,30.32,East,97,11.0,19.0,70,0.00,,,0.00,0,WeatherCatV1.14B232,2013-02-24 10:33:00,
2013-02-24 02:38:00,14.8,6.8,30.32,SSE,154,11.0,11.0,70,0.00,,,0.00,0,WeatherCatV1.14B232,2013-02-24 10:38:00,
2013-02-24 02:43:00,14.9,7.2,30.32,East,101,9.0,16.0,71,0.00,,,0.00,0,WeatherCatV1.14B232,2013-02-24 10:43:00,
2013-02-24 02:48:00,14.8,6.8,30.32,SE,130,14.0,16.0,70,0.00,,,0.00,0,WeatherCatV1.14B232,2013-02-24 10:48:00,
2013-02-24 02:53:00,14.8,6.8,30.32,SE,124,7.0,17.0,70,0.00,,,0.00,0,WeatherCatV1.14B232,2013-02-24 10:53:00,
2013-02-24 02:58:00,14.8,7.1,30.32,ESE,112,9.0,18.0,71,0.00,,,0.00,0,WeatherCatV1.14B232,2013-02-24 10:58:00,
2013-02-24 03:03:00,14.8,7.1,30.31,East,97,16.0,21.0,71,0.00,,,0.00,0,WeatherCatV1.14B232,2013-02-24 11:03:00,
2013-02-24 03:08:00,14.9,7.2,30.31,ESE,112,12.0,18.0,71,0.00,,,0.00,0,WeatherCatV1.14B232,2013-02-24 11:08:00,
2013-02-24 03:13:00,14.8,7.1,30.31,SE,144,13.0,18.0,71,0.00,,,0.00,0,WeatherCatV1.14B232,2013-02-24 11:13:00,
2013-02-24 03:18:00,14.6,6.9,30.32,SSE,155,5.0,17.0,71,0.00,,,0.00,0,WeatherCatV1.14B232,2013-02-24 11:18:00,
2013-02-24 03:23:00,14.6,7.2,30.32,East,87,10.0,15.0,72,0.00,,,0.00,0,WeatherCatV1.14B232,2013-02-24 11:23:00,
2013-02-24 03:28:00,14.6,6.9,30.32,SE,134,10.0,18.0,71,0.00,,,0.00,0,WeatherCatV1.14B232,2013-02-24 11:28:00,
2013-02-24 03:33:00,14.6,7.2,30.33,SE,129,7.0,16.0,72,0.00,,,0.00,0,WeatherCatV1.14B232,2013-02-24 11:33:00,
2013-02-24 03:38:00,14.8,7.4,30.33,East,87,9.0,20.0,72,0.00,,,0.00,0,WeatherCatV1.14B232,2013-02-24 11:38:00,
2013-02-24 03:43:00,14.8,7.1,30.33,ESE,114,10.0,18.0,71,0.00,,,0.00,0,WeatherCatV1.14B232,2013-02-24 11:43:00,
2013-02-24 03:48:00,14.6,6.9,30.33,SE,134,14.0,16.0,71,0.00,,,0.00,0,WeatherCatV1.14B232,2013-02-24 11:48:00,
2013-02-24 03:50:00,14.6,6.9,30.33,SE,135,12.0,15.0,71,0.00,,,0.00,0,WeatherCatV1.14B232,2013-02-24 11:50:00,
2013-02-24 03:55:00,14.6,6.9,30.33,ESE,112,13.0,16.0,71,0.00,,,0.00,0,WeatherCatV1.14B232,2013-02-24 11:55:00,
2013-02-24 04:00:00,14.4,7.1,30.33,ESE,112,12.0,19.0,72,0.00,,,0.00,0,WeatherCatV1.14B232,2013-02-24 12:00:00,
2013-02-24 04:05:00,14.6,7.2,30.33,ESE,112,11.0,17.0,72,0.00,,,0.00,0,WeatherCatV1.14B232,2013-02-24 12:05:00,
2013-02-24 04:10:00,14.4,7.1,30.33,ESE,112,11.0,16.0,72,0.00,,,0.00,0,WeatherCatV1.14B232,2013-02-24 12:10:00,
2013-02-24 04:15:00,14.6,7.2,30.37,ESE,112,12.0,18.0,72,0.00,,,0.00,0,WeatherCatV1.14B232,2013-02-24 12:15:00,
2013-02-24 04:20:00,14.8,7.4,30.37,ESE,112,11.0,15.0,72,0.00,,,0.00,0,WeatherCatV1.14B232,2013-02-24 12:20:00,
2013-02-24 04:25:00,14.8,7.4,30.37,ESE,112,11.0,15.0,72,0.00,,,0.00,0,WeatherCatV1.14B232,2013-02-24 12:25:00,
2013-02-24 04:30:00,14.8,7.4,30.37,ESE,112,9.0,14.0,72,0.00,,,0.00,0,WeatherCatV1.14B232,2013-02-24 12:30:00,
2013-02-24 04:35:00,14.6,7.2,30.37,ESE,112,10.0,15.0,72,0.00,,,0.00,0,WeatherCatV1.14B232,2013-02-24 12:35:00,
2013-02-24 04:40:00,14.6,7.2,30.37,ESE,112,12.0,22.0,72,0.00,,,0.00,0,WeatherCatV1.14B232,2013-02-24 12:40:00,
2013-02-24 04:45:00,14.6,7.2,30.37,ESE,112,12.0,23.0,72,0.00,,,0.00,0,WeatherCatV1.14B232,2013-02-24 12:45:00,
2013-02-24 04:50:00,14.4,7.1,30.37,ESE,112,13.0,18.0,72,0.00,,,0.00,0,WeatherCatV1.14B232,2013-02-24 12:50:00,
2013-02-24 04:55:00,14.4,7.1,30.37,ESE,112,11.0,17.0,72,0.00,,,0.00,0,WeatherCatV1.14B232,2013-02-24 12:55:00,
2013-02-24 05:00:00,14.4,7.1,30.37,SE,135,11.0,14.0,72,0.00,,,0.00,0,WeatherCatV1.14B232,2013-02-24 13:00:00,
2013-02-24 05:05:00,14.3,7.2,30.39,ESE,112,12.0,14.0,73,0.00,,,0.00,0,WeatherCatV1.14B232,2013-02-24 13:05:00,
2013-02-24 05:10:00,14.3,7.2,30.39,ESE,112,14.0,21.0,73,0.00,,,0.00,0,WeatherCatV1.14B232,2013-02-24 13:10:00,
2013-02-24 05:15:00,14.3,7.2,30.39,ESE,112,12.0,15.0,73,0.00,,,0.00,0,WeatherCatV1.14B232,2013-02-24 13:15:00,
2013-02-24 05:20:00,14.3,7.2,30.39,SE,135,12.0,15.0,73,0.00,,,0.00,0,WeatherCatV1.14B232,2013-02-24 13:20:00,
2013-02-24 05:25:00,14.1,7.4,30.39,SE,135,12.0,17.0,74,0.00,,,0.00,0,WeatherCatV1.14B232,2013-02-24 13:25:00,
2013-02-24 05:30:00,14.0,7.3,30.39,ESE,112,13.0,17.0,74,0.00,,,0.00,0,WeatherCatV1.14B232,2013-02-24 13:30:00,
2013-02-24 05:35:00,14.0,7.6,30.40,ESE,112,11.0,16.0,75,0.00,,,0.00,0,WeatherCatV1.14B232,2013-02-24 13:35:00,
2013-02-24 05:40:00,14.0,7.6,30.40,ESE,112,12.0,18.0,75,0.00,,,0.00,0,WeatherCatV1.14B232,2013-02-24 13:40:00,
2013-02-24 05:45:00,14.0,7.3,30.41,ESE,112,11.0,18.0,74,0.00,,,0.00,0,WeatherCatV1.14B232,2013-02-24 13:45:00,
2013-02-24 05:50:00,13.8,7.1,30.41,ESE,112,9.0,13.0,74,0.00,,,0.00,0,WeatherCatV1.14B232,2013-02-24 13:50:00,
2013-02-24 05:55:00,13.8,7.4,30.41,East,90,6.0,11.0,75,0.00,,,0.00,0,WeatherCatV1.14B232,2013-02-24 13:55:00,
2013-02-24 06:00:00,13.8,7.4,30.41,ESE,112,7.0,13.0,75,0.00,,,0.00,0,WeatherCatV1.14B232,2013-02-24 14:00:00,
2013-02-24 06:05:00,13.8,7.4,30.41,ESE,112,8.0,14.0,75,0.00,,,0.00,0,WeatherCatV1.14B232,2013-02-24 14:05:00,
2013-02-24 06:10:00,13.6,7.2,30.41,ESE,112,13.0,20.0,75,0.00,,,0.00,0,WeatherCatV1.14B232,2013-02-24 14:10:00,
2013-02-24 06:15:00,13.5,7.4,30.41,ESE,112,13.0,18.0,76,0.00,,,0.00,0,WeatherCatV1.14B232,2013-02-24 14:15:00,
2013-02-24 06:20:00,13.5,7.4,30.42,ESE,112,11.0,15.0,76,0.00,,,0.00,0,WeatherCatV1.14B232,2013-02-24 14:20:00,
2013-02-24 06:25:00,13.5,7.4,30.42,ESE,112,10.0,15.0,76,0.00,,,0.00,0,WeatherCatV1.14B232,2013-02-24 14:25:00,
2013-02-24 06:30:00,13.3,7.2,30.42,ESE,112,10.0,14.0,76,0.00,,,0.00,0,WeatherCatV1.14B232,2013-02-24 14:30:00,
2013-02-24 06:35:00,13.3,7.5,30.43,ESE,112,12.0,15.0,77,0.00,,,0.00,0,WeatherCatV1.14B232,2013-02-24 14:35:00,
2013-02-24 06:40:00,13.3,7.5,30.43,ESE,112,10.0,13.0,77,0.00,,,0.00,3,WeatherCatV1.14B232,2013-02-24 14:40:00,
2013-02-24 06:45:00,13.3,7.5,30.43,ESE,112,12.0,16.0,77,0.00,,,0.00,7,WeatherCatV1.14B232,2013-02-24 14:45:00,
2013-02-24 06:50:00,13.1,7.6,30.43,ESE,112,12.0,15.0,78,0.00,,,0.00,9,WeatherCatV1.14B232,2013-02-24 14:50:00,
2013-02-24 06:55:00,13.3,7.5,30.43,ESE,112,11.0,15.0,77,0.00,,,0.00,11,WeatherCatV1.14B232,2013-02-24 14:55:00,
2013-02-24 07:00:00,13.5,7.9,30.43,ESE,112,13.0,16.0,78,0.00,,,0.00,12,WeatherCatV1.14B232,2013-02-24 15:00:00,
2013-02-24 07:05:00,13.6,7.8,30.44,ESE,112,10.0,15.0,77,0.00,,,0.00,19,WeatherCatV1.14B232,2013-02-24 15:05:00,
2013-02-24 07:10:00,14.1,8.2,30.44,ESE,112,9.0,14.0,77,0.00,,,0.00,30,WeatherCatV1.14B232,2013-02-24 15:10:00,
2013-02-24 07:15:00,14.6,8.1,30.45,ESE,112,10.0,17.0,75,0.00,,,0.00,40,WeatherCatV1.14B232,2013-02-24 15:15:00,
2013-02-24 07:20:00,14.8,8.3,30.45,East,90,6.0,12.0,75,0.00,,,0.00,54,WeatherCatV1.14B232,2013-02-24 15:20:00,
2013-02-24 07:25:00,15.1,8.3,30.45,ESE,112,10.0,16.0,74,0.00,,,0.00,68,WeatherCatV1.14B232,2013-02-24 15:25:00,
2013-02-24 07:30:00,15.4,8.3,30.46,ESE,112,10.0,19.0,73,0.00,,,0.00,83,WeatherCatV1.14B232,2013-02-24 15:30:00,
2013-02-24 07:35:00,15.9,8.5,30.46,East,90,11.0,22.0,72,0.00,,,0.00,98,WeatherCatV1.14B232,2013-02-24 15:35:00,
2013-02-24 07:40:00,16.2,8.5,30.46,SE,135,9.0,13.0,71,0.00,,,0.00,116,WeatherCatV1.14B232,2013-02-24 15:40:00,
2013-02-24 07:45:00,16.5,8.1,30.44,ESE,112,10.0,17.0,69,0.00,,,0.00,132,WeatherCatV1.14B232,2013-02-24 15:45:00,
2013-02-24 07:50:00,16.9,8.2,30.44,East,90,12.0,21.0,68,0.00,,,0.00,148,WeatherCatV1.14B232,2013-02-24 15:50:00,
2013-02-24 07:55:00,17.2,8.1,30.44,ESE,112,8.0,15.0,67,0.00,,,0.00,163,WeatherCatV1.14B232,2013-02-24 15:55:00,
2013-02-24 08:00:00,17.3,7.9,30.44,ESE,112,11.0,17.0,66,0.00,,,0.00,174,WeatherCatV1.14B232,2013-02-24 16:00:00,
2013-02-24 08:05:00,17.7,8.0,30.45,ESE,112,10.0,16.0,65,0.00,,,0.00,192,WeatherCatV1.14B232,2013-02-24 16:05:00,
2013-02-24 08:10:00,18.1,8.7,30.45,ESE,112,13.0,17.0,66,0.00,,,0.00,211,WeatherCatV1.14B232,2013-02-24 16:10:00,
2013-02-24 08:15:00,19.5,9.0,30.45,ESE,112,12.0,15.0,63,0.00,,,0.00,232,WeatherCatV1.14B232,2013-02-24 16:15:00,
2013-02-24 08:20:00,20.0,9.1,30.41,ESE,112,12.0,16.0,62,0.00,,,0.00,251,WeatherCatV1.14B232,2013-02-24 16:20:00,
2013-02-24 08:25:00,20.3,9.0,30.41,ESE,112,10.0,14.0,61,0.00,,,0.00,266,WeatherCatV1.14B232,2013-02-24 16:25:00,
2013-02-24 08:30:00,20.3,8.3,30.41,ESE,112,12.0,17.0,59,0.00,,,0.00,287,WeatherCatV1.14B232,2013-02-24 16:30:00,
2013-02-24 08:35:00,20.3,8.7,30.43,ESE,112,11.0,17.0,60,0.00,,,0.00,311,WeatherCatV1.14B232,2013-02-24 16:35:00,
2013-02-24 08:40:00,20.5,8.1,30.43,ESE,112,12.0,17.0,58,0.00,,,0.00,334,WeatherCatV1.14B232,2013-02-24 16:40:00,
2013-02-24 08:45:00,20.8,8.4,30.43,ESE,112,12.0,15.0,58,0.00,,,0.00,345,WeatherCatV1.14B232,2013-02-24 16:45:00,
2013-02-24 08:50:00,21.0,8.6,30.43,ESE,112,12.0,18.0,58,0.00,,,0.00,353,WeatherCatV1.14B232,2013-02-24 16:50:00,
2013-02-24 08:55:00,22.1,9.2,30.43,ESE,112,11.0,17.0,57,0.00,,,0.00,362,WeatherCatV1.14B232,2013-02-24 16:55:00,
2013-02-24 09:00:00,22.7,8.6,30.42,ESE,112,10.0,16.0,54,0.00,,,0.00,376,WeatherCatV1.14B232,2013-02-24 17:00:00,
2013-02-24 09:05:00,23.3,9.9,30.42,ESE,112,9.0,12.0,56,0.00,,,0.00,390,WeatherCatV1.14B232,2013-02-24 17:05:00,
2013-02-24 09:10:00,23.5,9.7,30.42,ESE,112,11.0,16.0,55,0.00,,,0.00,404,WeatherCatV1.14B232,2013-02-24 17:10:00,
2013-02-24 09:15:00,23.3,9.1,30.44,ESE,112,11.0,16.0,54,0.00,,,0.00,425,WeatherCatV1.14B232,2013-02-24 17:15:00,
2013-02-24 09:20:00,23.5,9.7,30.44,ESE,112,12.0,19.0,55,0.00,,,0.00,450,WeatherCatV1.14B232,2013-02-24 17:20:00,
2013-02-24 09:25:00,23.0,8.9,30.44,ESE,112,11.0,17.0,54,0.00,,,0.00,487,WeatherCatV1.14B232,2013-02-24 17:25:00,
2013-02-24 09:30:00,22.9,9.2,30.45,ESE,112,14.0,19.0,55,0.00,,,0.00,526,WeatherCatV1.14B232,2013-02-24 17:30:00,
2013-02-24 09:35:00,22.9,9.2,30.45,SE,135,10.0,19.0,55,0.00,,,0.00,563,WeatherCatV1.14B232,2013-02-24 17:35:00,
2013-02-24 09:40:00,23.8,10.0,30.45,ESE,112,11.0,18.0,55,0.00,,,0.00,561,WeatherCatV1.14B232,2013-02-24 17:40:00,
2013-02-24 09:45:00,23.9,9.7,30.45,ESE,112,10.0,16.0,54,0.00,,,0.00,483,WeatherCatV1.14B232,2013-02-24 17:45:00,
2013-02-24 09:50:00,24.2,10.4,30.43,ESE,112,12.0,17.0,55,0.00,,,0.00,571,WeatherCatV1.14B232,2013-02-24 17:50:00,
2013-02-24 09:55:00,24.2,9.1,30.43,ESE,112,14.0,20.0,52,0.00,,,0.00,575,WeatherCatV1.14B232,2013-02-24 17:55:00,
2013-02-24 10:00:00,24.2,10.0,30.43,ESE,112,11.0,13.0,54,0.00,,,0.00,636,WeatherCatV1.14B232,2013-02-24 18:00:00,
2013-02-24 10:05:00,24.5,9.8,30.43,ESE,112,9.0,14.0,53,0.00,,,0.00,641,WeatherCatV1.14B232,2013-02-24 18:05:00,
2013-02-24 10:10:00,24.7,9.6,30.43,East,90,6.0,12.0,52,0.00,,,0.00,619,WeatherCatV1.14B232,2013-02-24 18:10:00,
2013-02-24 10:15:00,24.4,9.8,30.43,ESE,112,10.0,15.0,53,0.00,,,0.00,619,WeatherCatV1.14B232,2013-02-24 18:15:00,
2013-02-24 10:20:00,24.5,9.8,30.43,ESE,112,10.0,16.0,53,0.00,,,0.00,606,WeatherCatV1.14B232,2013-02-24 18:20:00,
2013-02-24 10:25:00,25.0,9.9,30.43,ESE,112,9.0,16.0,52,0.00,,,0.00,622,WeatherCatV1.14B232,2013-02-24 18:25:00,
2013-02-24 10:30:00,25.0,9.9,30.43,ESE,112,6.0,10.0,52,0.00,,,0.00,631,WeatherCatV1.14B232,2013-02-24 18:30:00,
2013-02-24 10:35:00,25.3,10.2,30.43,ESE,112,9.0,15.0,52,0.00,,,0.00,635,WeatherCatV1.14B232,2013-02-24 18:35:00,
2013-02-24 10:40:00,25.1,9.6,30.43,ESE,112,9.0,14.0,51,0.00,,,0.00,636,WeatherCatV1.14B232,2013-02-24 18:40:00,
2013-02-24 10:45:00,25.3,10.2,30.43,ESE,112,9.0,15.0,52,0.00,,,0.00,647,WeatherCatV1.14B232,2013-02-24 18:45:00,
2013-02-24 10:50:00,25.1,9.6,30.43,East,90,10.0,23.0,51,0.00,,,0.00,651,WeatherCatV1.14B232,2013-02-24 18:50:00,
2013-02-24 10:55:00,25.6,10.0,30.43,ESE,112,12.0,17.0,51,0.00,,,0.00,650,WeatherCatV1.14B232,2013-02-24 18:55:00,
2013-02-24 11:00:00,26.3,11.1,30.42,ESE,112,8.0,15.0,52,0.00,,,0.00,652,WeatherCatV1.14B232,2013-02-24 19:00:00,
2013-02-24 11:05:00,26.4,9.4,30.42,ESE,112,7.0,12.0,48,0.00,,,0.00,657,WeatherCatV1.14B232,2013-02-24 19:05:00,
2013-02-24 11:10:00,27.2,9.7,30.42,ESE,112,9.0,14.0,47,0.00,,,0.00,659,WeatherCatV1.14B232,2013-02-24 19:10:00,
2013-02-24 11:15:00,27.6,9.1,30.41,ESE,112,11.0,21.0,45,0.00,,,0.00,666,WeatherCatV1.14B232,2013-02-24 19:15:00,
2013-02-24 11:20:00,27.8,10.2,30.41,ESE,112,9.0,14.0,47,0.00,,,0.00,671,WeatherCatV1.14B232,2013-02-24 19:20:00,
2013-02-24 11:31:00,28.1,9.5,30.41,ESE,108,8.0,10.0,45,0.00,,,0.00,679,WeatherCatV1.14B232,2013-02-24 19:31:00,
2013-02-24 11:36:00,29.3,10.1,30.42,SE,139,10.0,14.0,44,0.00,,,0.00,712,WeatherCatV1.14B232,2013-02-24 19:36:00,
2013-02-24 11:41:00,29.8,10.1,30.42,SSE,147,7.0,14.0,43,0.00,,,0.00,603,WeatherCatV1.14B232,2013-02-24 19:41:00,
2013-02-24 11:46:00,30.3,10.0,30.40,ESE,120,9.0,12.0,42,0.00,,,0.00,592,WeatherCatV1.14B232,2013-02-24 19:46:00,
2013-02-24 11:51:00,31.0,9.5,30.40,ESE,111,7.0,11.0,40,0.00,,,0.00,605,WeatherCatV1.14B232,2013-02-24 19:51:00,
2013-02-24 11:56:00,31.2,8.0,30.40,ESE,105,3.0,13.0,37,0.00,,,0.00,636,WeatherCatV1.14B232,2013-02-24 19:56:00,
2013-02-24 12:01:00,30.7,8.7,30.40,SE,126,7.0,12.0,39,0.00,,,0.00,580,WeatherCatV1.14B232,2013-02-24 20:01:00,
2013-02-24 12:06:00,31.2,8.6,30.40,East,88,12.0,13.0,38,0.00,,,0.00,707,WeatherCatV1.14B232,2013-02-24 20:06:00,
2013-02-24 12:11:00,31.5,8.9,30.40,SE,126,11.0,12.0,38,0.00,,,0.00,715,WeatherCatV1.14B232,2013-02-24 20:11:00,
2013-02-24 12:16:00,31.9,9.2,30.40,East,99,6.0,13.0,38,0.00,,,0.00,701,WeatherCatV1.14B232,2013-02-24 20:16:00,
2013-02-24 12:21:00,31.8,6.7,30.40,ESE,116,9.0,13.0,34,0.00,,,0.00,656,WeatherCatV1.14B232,2013-02-24 20:21:00,
2013-02-24 12:26:00,31.8,7.3,30.40,ENE,69,9.0,11.0,35,0.00,,,0.00,606,WeatherCatV1.14B232,2013-02-24 20:26:00,
2013-02-24 12:31:00,32.4,4.5,30.40,SE,145,11.0,11.0,30,0.00,,,0.00,656,WeatherCatV1.14B232,2013-02-24 20:31:00,
2013-02-24 12:36:00,32.4,3.0,30.40,ESE,107,9.0,14.0,28,0.00,,,0.00,592,WeatherCatV1.14B232,2013-02-24 20:36:00,
2013-02-24 12:41:00,31.9,1.8,30.40,ESE,117,7.0,13.0,27,0.00,,,0.00,612,WeatherCatV1.14B232,2013-02-24 20:41:00,
2013-02-24 12:46:00,31.9,3.3,30.40,SSE,149,9.0,14.0,29,0.00,,,0.00,700,WeatherCatV1.14B232,2013-02-24 20:46:00,
2013-02-24 12:51:00,32.7,3.2,30.40,ESE,106,11.0,14.0,28,0.00,,,0.00,765,WeatherCatV1.14B232,2013-02-24 20:51:00,
2013-02-24 12:56:00,32.7,4.0,30.40,East,101,7.0,15.0,29,0.00,,,0.00,737,WeatherCatV1.14B232,2013-02-24 20:56:00,
2013-02-24 13:01:00,32.8,3.3,30.37,ESE,110,4.0,14.0,28,0.00,,,0.00,719,WeatherCatV1.14B232,2013-02-24 21:01:00,
2013-02-24 13:06:00,32.7,2.5,30.37,ESE,110,12.0,18.0,27,0.00,,,0.00,694,WeatherCatV1.14B232,2013-02-24 21:06:00,
2013-02-24 13:11:00,32.8,4.1,30.37,SE,139,12.0,16.0,29,0.00,,,0.00,691,WeatherCatV1.14B232,2013-02-24 21:11:00,
2013-02-24 13:16:00,32.9,3.4,30.37,East,98,5.0,13.0,28,0.00,,,0.00,708,WeatherCatV1.14B232,2013-02-24 21:16:00,
2013-02-24 13:21:00,33.2,2.9,30.37,ESE,103,5.0,10.0,27,0.00,,,0.00,729,WeatherCatV1.14B232,2013-02-24 21:21:00,
2013-02-24 13:26:00,34.0,3.6,30.37,East,101,4.0,13.0,27,0.00,,,0.00,606,WeatherCatV1.14B232,2013-02-24 21:26:00,
2013-02-24 13:31:00,34.0,2.8,30.38,East,95,4.0,11.0,26,0.00,,,0.00,585,WeatherCatV1.14B232,2013-02-24 21:31:00,
2013-02-24 13:36:00,34.7,7.2,30.38,SE,136,4.0,12.0,31,0.00,,,0.00,664,WeatherCatV1.14B232,2013-02-24 21:36:00,
2013-02-24 13:41:00,35.3,5.5,30.38,ESE,116,7.0,14.0,28,0.00,,,0.00,670,WeatherCatV1.14B232,2013-02-24 21:41:00,
2013-02-24 13:46:00,35.5,4.1,30.36,ESE,114,5.0,14.0,26,0.00,,,0.00,580,WeatherCatV1.14B232,2013-02-24 21:46:00,
2013-02-24 13:51:00,34.3,3.0,30.36,SSE,155,6.0,10.0,26,0.00,,,0.00,550,WeatherCatV1.14B232,2013-02-24 21:51:00,
2013-02-24 13:56:00,33.7,4.1,30.36,East,101,7.0,11.0,28,0.00,,,0.00,540,WeatherCatV1.14B232,2013-02-24 21:56:00,
2013-02-24 14:01:00,33.2,3.7,30.39,SE,124,6.0,12.0,28,0.00,,,0.00,559,WeatherCatV1.14B232,2013-02-24 22:01:00,
2013-02-24 14:06:00,33.1,3.6,30.39,ESE,116,4.0,8.0,28,0.00,,,0.00,522,WeatherCatV1.14B232,2013-02-24 22:06:00,
2013-02-24 14:11:00,32.8,2.5,30.39,SSE,157,9.0,13.0,27,0.00,,,0.00,547,WeatherCatV1.14B232,2013-02-24 22:11:00,
2013-02-24 14:16:00,32.5,3.1,30.38,ESE,112,10.0,17.0,28,0.00,,,0.00,578,WeatherCatV1.14B232,2013-02-24 22:16:00,
2013-02-24 14:21:00,31.9,2.5,30.38,ESE,122,9.0,15.0,28,0.00,,,0.00,575,WeatherCatV1.14B232,2013-02-24 22:21:00,
2013-02-24 14:26:00,31.9,4.0,30.38,ESE,118,5.0,11.0,30,0.00,,,0.00,482,WeatherCatV1.14B232,2013-02-24 22:26:00,
2013-02-24 14:31:00,31.9,2.5,30.40,ESE,121,10.0,13.0,28,0.00,,,0.00,578,WeatherCatV1.14B232,2013-02-24 22:31:00,
2013-02-24 14:36:00,31.9,3.3,30.40,SSE,153,11.0,13.0,29,0.00,,,0.00,125,WeatherCatV1.14B232,2013-02-24 22:36:00,
2013-02-24 14:41:00,31.5,2.2,30.40,SE,141,6.0,14.0,28,0.00,,,0.00,65,WeatherCatV1.14B232,2013-02-24 22:41:00,
2013-02-24 14:46:00,31.3,3.5,30.40,ESE,122,4.0,6.0,30,0.00,,,0.00,62,WeatherCatV1.14B232,2013-02-24 22:46:00,
2013-02-24 14:51:00,31.6,2.3,30.40,ESE,110,5.0,9.0,28,0.00,,,0.00,58,WeatherCatV1.14B232,2013-02-24 22:51:00,
2013-02-24 14:56:00,31.8,2.5,30.40,SE,124,4.0,7.0,28,0.00,,,0.00,98,WeatherCatV1.14B232,2013-02-24 22:56:00,
2013-02-24 15:01:00,31.8,2.5,30.40,SSE,149,6.0,10.0,28,0.00,,,0.00,188,WeatherCatV1.14B232,2013-02-24 23:01:00,
2013-02-24 15:06:00,31.6,3.8,30.40,East,88,3.0,12.0,30,0.00,,,0.00,494,WeatherCatV1.14B232,2013-02-24 23:06:00,
2013-02-24 15:11:00,31.5,2.9,30.40,ESE,112,6.0,9.0,29,0.00,,,0.00,489,WeatherCatV1.14B232,2013-02-24 23:11:00,
2013-02-24 15:16:00,31.3,4.2,30.42,East,99,5.0,12.0,31,0.00,,,0.00,504,WeatherCatV1.14B232,2013-02-24 23:16:00,
2013-02-24 15:21:00,31.5,3.7,30.42,SSE,162,3.0,13.0,30,0.00,,,0.00,462,WeatherCatV1.14B232,2013-02-24 23:21:00,
2013-02-24 15:26:00,31.8,3.9,30.42,SE,135,4.0,10.0,30,0.00,,,0.00,476,WeatherCatV1.14B232,2013-02-24 23:26:00,
2013-02-24 15:31:00,31.9,4.7,30.41,SE,143,1.0,7.0,31,0.00,,,0.00,329,WeatherCatV1.14B232,2013-02-24 23:31:00,
2013-02-24 15:36:00,32.1,4.2,30.41,SE,126,4.0,5.0,30,0.00,,,0.00,156,WeatherCatV1.14B232,2013-02-24 23:36:00,
2013-02-24 15:41:00,31.6,3.8,30.41,ESE,117,3.0,9.0,30,0.00,,,0.00,373,WeatherCatV1.14B232,2013-02-24 23:41:00,
2013-02-24 15:46:00,31.8,3.9,30.41,ESE,103,0.0,9.0,30,0.00,,,0.00,383,WeatherCatV1.14B232,2013-02-24 23:46:00,
2013-02-24 15:51:00,31.8,2.5,30.41,ESE,110,0.0,6.0,28,0.00,,,0.00,49,WeatherCatV1.14B232,2013-02-24 23:51:00,
2013-02-24 15:56:00,31.8,3.9,30.41,East,99,3.0,6.0,30,0.00,,,0.00,76,WeatherCatV1.14B232,2013-02-24 23:56:00,
2013-02-24 16:01:00,31.8,3.9,30.40,ESE,109,1.0,5.0,30,0.00,,,0.00,332,WeatherCatV1.14B232,2013-02-25 00:01:00,
2013-02-24 16:06:00,31.8,3.9,30.40,ESE,106,0.0,6.0,30,0.00,,,0.00,315,WeatherCatV1.14B232,2013-02-25 00:06:00,
2013-02-24 16:11:00,31.9,4.7,30.40,East,99,1.0,6.0,31,0.00,,,0.00,299,WeatherCatV1.14B232,2013-02-25 00:11:00,
2013-02-24 16:16:00,32.1,4.2,30.40,ESE,103,1.0,5.0,30,0.00,,,0.00,287,WeatherCatV1.14B232,2013-02-25 00:16:00,
2013-02-24 16:21:00,31.9,4.7,30.40,ESE,118,0.0,3.0,31,0.00,,,0.00,271,WeatherCatV1.14B232,2013-02-25 00:21:00,
2013-02-24 16:26:00,31.8,4.7,30.40,ESE,104,0.0,4.0,31,0.00,,,0.00,255,WeatherCatV1.14B232,2013-02-25 00:26:00,
2013-02-24 16:31:00,31.6,4.5,30.40,East,98,2.0,4.0,31,0.00,,,0.00,239,WeatherCatV1.14B232,2013-02-25 00:31:00,
2013-02-24 16:36:00,31.5,5.1,30.40,ESE,105,0.0,2.0,32,0.00,,,0.00,74,WeatherCatV1.14B232,2013-02-25 00:36:00,
2013-02-24 16:41:00,31.3,4.9,30.40,ESE,107,2.0,4.0,32,0.00,,,0.00,46,WeatherCatV1.14B232,2013-02-25 00:41:00,
2013-02-24 16:46:00,31.0,5.3,30.41,ESE,108,2.0,7.0,33,0.00,,,0.00,26,WeatherCatV1.14B232,2013-02-25 00:46:00,
2013-02-24 16:51:00,30.6,5.6,30.41,East,101,1.0,3.0,34,0.00,,,0.00,42,WeatherCatV1.14B232,2013-02-25 00:51:00,
2013-02-24 16:56:00,30.4,4.8,30.41,ESE,103,2.0,4.0,33,0.00,,,0.00,47,WeatherCatV1.14B232,2013-02-25 00:56:00,
2013-02-24 17:01:00,30.3,5.3,30.40,ESE,108,0.0,5.0,34,0.00,,,0.00,25,WeatherCatV1.14B232,2013-02-25 01:01:00,
2013-02-24 17:06:00,30.0,5.7,30.40,SE,137,5.0,6.0,35,0.00,,,0.00,47,WeatherCatV1.14B232,2013-02-25 01:06:00,
2013-02-24 17:11:00,29.7,5.4,30.40,ESE,108,2.0,9.0,35,0.00,,,0.00,25,WeatherCatV1.14B232,2013-02-25 01:11:00,
2013-02-24 17:16:00,29.5,5.3,30.41,ESE,107,2.0,5.0,35,0.00,,,0.00,56,WeatherCatV1.14B232,2013-02-25 01:16:00,
2013-02-24 17:21:00,29.4,5.2,30.41,ESE,106,2.0,5.0,35,0.00,,,0.00,67,WeatherCatV1.14B232,2013-02-25 01:21:00,
2013-02-24 17:26:00,29.1,4.9,30.41,ESE,106,1.0,7.0,35,0.00,,,0.00,26,WeatherCatV1.14B232,2013-02-25 01:26:00,
2013-02-24 17:31:00,29.1,4.9,30.42,SSE,160,5.0,7.0,35,0.00,,,0.00,19,WeatherCatV1.14B232,2013-02-25 01:31:00,
2013-02-24 17:36:00,29.0,5.4,30.42,ESE,112,5.0,7.0,36,0.00,,,0.00,14,WeatherCatV1.14B232,2013-02-25 01:36:00,
2013-02-24 17:41:00,28.8,4.6,30.42,ESE,116,4.0,12.0,35,0.00,,,0.00,11,WeatherCatV1.14B232,2013-02-25 01:41:00,
2013-02-24 17:46:00,28.4,4.9,30.42,ESE,114,4.0,10.0,36,0.00,,,0.00,7,WeatherCatV1.14B232,2013-02-25 01:46:00,
2013-02-24 17:51:00,28.2,4.7,30.42,SE,144,3.0,10.0,36,0.00,,,0.00,5,WeatherCatV1.14B232,2013-02-25 01:51:00,
2013-02-24 17:56:00,28.1,5.2,30.42,ESE,108,6.0,7.0,37,0.00,,,0.00,0,WeatherCatV1.14B232,2013-02-25 01:56:00,
2013-02-24 18:01:00,27.6,5.4,30.42,ESE,108,2.0,3.0,38,0.00,,,0.00,0,WeatherCatV1.14B232,2013-02-25 02:01:00,
2013-02-24 18:06:00,27.3,6.2,30.42,ESE,107,1.0,3.0,40,0.00,,,0.00,0,WeatherCatV1.14B232,2013-02-25 02:06:00,
2013-02-24 18:11:00,27.5,6.9,30.42,ESE,109,4.0,4.0,41,0.00,,,0.00,0,WeatherCatV1.14B232,2013-02-25 02:11:00,
2013-02-24 18:16:00,27.6,6.5,30.43,ESE,110,0.0,2.0,40,0.00,,,0.00,0,WeatherCatV1.14B232,2013-02-25 02:16:00,
2013-02-24 18:21:00,27.5,7.5,30.43,ESE,110,0.0,3.0,42,0.00,,,0.00,0,WeatherCatV1.14B232,2013-02-25 02:21:00,
2013-02-24 18:26:00,27.2,6.7,30.43,ESE,110,1.0,2.0,41,0.00,,,0.00,0,WeatherCatV1.14B232,2013-02-25 02:26:00,
2013-02-24 18:31:00,26.9,6.4,30.45,ESE,110,0.0,1.0,41,0.00,,,0.00,0,WeatherCatV1.14B232,2013-02-25 02:31:00,
2013-02-24 18:36:00,26.6,6.1,30.45,ESE,110,0.0,2.0,41,0.00,,,0.00,0,WeatherCatV1.14B232,2013-02-25 02:36:00,
2013-02-24 18:41:00,26.6,6.1,30.45,ESE,110,0.0,2.0,41,0.00,,,0.00,0,WeatherCatV1.14B232,2013-02-25 02:41:00,
2013-02-24 18:46:00,26.4,6.5,30.45,East,91,4.0,4.0,42,0.00,,,0.00,0,WeatherCatV1.14B232,2013-02-25 02:46:00,
2013-02-24 18:51:00,26.4,4.8,30.45,East,90,0.0,2.0,39,0.00,,,0.00,0,WeatherCatV1.14B232,2013-02-25 02:51:00,
2013-02-24 18:56:00,26.6,5.0,30.45,East,91,0.0,0.0,39,0.00,,,0.00,0,WeatherCatV1.14B232,2013-02-25 02:56:00,
2013-02-24 19:01:00,26.7,0.9,30.46,East,91,0.0,2.0,32,0.00,,,0.00,0,WeatherCatV1.14B232,2013-02-25 03:01:00,
2013-02-24 19:06:00,26.7,0.2,30.46,East,91,0.0,0.0,31,0.00,,,0.00,0,WeatherCatV1.14B232,2013-02-25 03:06:00,
2013-02-24 19:11:00,26.9,1.7,30.46,East,90,0.0,2.0,33,0.00,,,0.00,0,WeatherCatV1.14B232,2013-02-25 03:11:00,
2013-02-24 19:16:00,27.2,1.3,30.42,East,90,0.0,0.0,32,0.00,,,0.00,0,WeatherCatV1.14B232,2013-02-25 03:16:00,
2013-02-24 19:21:00,27.2,0.6,30.42,East,87,2.0,4.0,31,0.00,,,0.00,0,WeatherCatV1.14B232,2013-02-25 03:21:00,
2013-02-24 19:26:00,27.2,1.3,30.42,East,92,2.0,2.0,32,0.00,,,0.00,0,WeatherCatV1.14B232,2013-02-25 03:26:00,
2013-02-24 19:31:00,27.0,1.1,30.42,East,93,0.0,2.0,32,0.00,,,0.00,0,WeatherCatV1.14B232,2013-02-25 03:31:00,
2013-02-24 19:36:00,26.7,2.1,30.42,East,87,2.0,3.0,34,0.00,,,0.00,0,WeatherCatV1.14B232,2013-02-25 03:36:00,
2013-02-24 19:41:00,26.6,3.3,30.42,East,96,0.0,4.0,36,0.00,,,0.00,0,WeatherCatV1.14B232,2013-02-25 03:41:00,
2013-02-24 19:46:00,26.4,4.8,30.42,East,99,1.0,3.0,39,0.00,,,0.00,0,WeatherCatV1.14B232,2013-02-25 03:46:00,
2013-02-24 19:51:00,26.3,3.6,30.42,East,97,3.0,3.0,37,0.00,,,0.00,0,WeatherCatV1.14B232,2013-02-25 03:51:00,
2013-02-24 19:56:00,26.4,3.7,30.42,East,92,0.0,4.0,37,0.00,,,0.00,0,WeatherCatV1.14B232,2013-02-25 03:56:00,
2013-02-24 20:01:00,26.3,3.0,30.42,East,81,0.0,4.0,36,0.00,,,0.00,0,WeatherCatV1.14B232,2013-02-25 04:01:00,
2013-02-24 20:06:00,26.1,4.0,30.42,East,97,0.0,3.0,38,0.00,,,0.00,0,WeatherCatV1.14B232,2013-02-25 04:06:00,
2013-02-24 20:11:00,25.8,4.8,30.42,East,97,1.0,1.0,40,0.00,,,0.00,0,WeatherCatV1.14B232,2013-02-25 04:11:00,
2013-02-24 20:16:00,25.7,4.8,30.38,East,99,1.0,3.0,40,0.00,,,0.00,0,WeatherCatV1.14B232,2013-02-25 04:16:00,
2013-02-24 20:21:00,25.7,3.6,30.38,East,88,3.0,5.0,38,0.00,,,0.00,0,WeatherCatV1.14B232,2013-02-25 04:21:00,
2013-02-24 20:26:00,25.8,3.7,30.38,East,88,0.0,1.0,38,0.00,,,0.00,0,WeatherCatV1.14B232,2013-02-25 04:26:00,
2013-02-24 20:31:00,26.1,1.0,30.39,East,83,0.0,4.0,33,0.00,,,0.00,0,WeatherCatV1.14B232,2013-02-25 04:31:00,
2013-02-24 20:36:00,26.3,1.8,30.39,East,83,0.0,3.0,34,0.00,,,0.00,0,WeatherCatV1.14B232,2013-02-25 04:36:00,
2013-02-24 20:41:00,26.4,2.5,30.39,East,83,0.0,0.0,35,0.00,,,0.00,0,WeatherCatV1.14B232,2013-02-25 04:41:00,
2013-02-24 20:46:00,26.4,1.2,30.39,East,83,0.0,0.0,33,0.00,,,0.00,0,WeatherCatV1.14B232,2013-02-25 04:46:00,
2013-02-24 20:51:00,26.6,0.8,30.39,East,83,0.0,0.0,32,0.00,,,0.00,0,WeatherCatV1.14B232,2013-02-25 04:51:00,
2013-02-24 20:56:00,26.6,1.4,30.39,East,83,0.0,0.0,33,0.00,,,0.00,0,WeatherCatV1.14B232,2013-02-25 04:56:00,
2013-02-24 21:00:00,26.7,1.5,30.37,East,83,0.0,0.0,33,0.00,,,0.00,0,WeatherCatV1.14B232,2013-02-25 05:00:00,
2013-02-24 21:01:00,26.7,1.5,30.37,East,83,0.0,0.0,33,0.00,,,0.00,0,WeatherCatV1.14B232,2013-02-25 05:01:00,
2013-02-24 21:03:00,26.7,1.5,30.37,East,83,0.0,0.0,33,0.00,,,0.00,0,WeatherCatV1.14B232,2013-02-25 05:03:00,
2013-02-24 21:04:00,26.7,2.1,30.37,East,83,0.0,0.0,34,0.00,,,0.00,0,WeatherCatV1.14B232,2013-02-25 05:04:00,
2013-02-24 21:09:00,26.9,3.6,30.37,East,89,1.0,2.0,36,0.00,,,0.00,0,WeatherCatV1.14B232,2013-02-25 05:09:00,
2013-02-24 21:14:00,27.0,3.6,30.37,East,89,0.0,2.0,36,0.00,,,0.00,0,WeatherCatV1.14B232,2013-02-25 05:14:00,
2013-02-24 21:19:00,27.0,3.6,30.37,East,89,0.0,3.0,36,0.00,,,0.00,0,WeatherCatV1.14B232,2013-02-25 05:19:00,
2013-02-24 21:24:00,27.0,4.2,30.37,East,89,0.0,3.0,37,0.00,,,0.00,0,WeatherCatV1.14B232,2013-02-25 05:24:00,
2013-02-24 21:29:00,26.9,4.7,30.37,East,89,0.0,3.0,38,0.00,,,0.00,0,WeatherCatV1.14B232,2013-02-25 05:29:00,
2013-02-24 21:34:00,26.9,4.7,30.37,East,89,0.0,2.0,38,0.00,,,0.00,0,WeatherCatV1.14B232,2013-02-25 05:34:00,
2013-02-24 21:39:00,26.9,3.6,30.37,East,89,0.0,0.0,36,0.00,,,0.00,0,WeatherCatV1.14B232,2013-02-25 05:39:00,
2013-02-24 21:44:00,26.9,2.9,30.37,East,89,0.0,0.0,35,0.00,,,0.00,0,WeatherCatV1.14B232,2013-02-25 05:44:00,
2013-02-24 21:49:00,26.9,2.3,30.37,East,89,0.0,0.0,34,0.00,,,0.00,0,WeatherCatV1.14B232,2013-02-25 05:49:00,
2013-02-24 21:54:00,26.9,2.9,30.37,East,89,0.0,0.0,35,0.00,,,0.00,0,WeatherCatV1.14B232,2013-02-25 05:54:00,
2013-02-24 21:59:00,26.9,2.9,30.37,NE,37,2.0,4.0,35,0.00,,,0.00,0,WeatherCatV1.14B232,2013-02-25 05:59:00,
2013-02-24 22:04:00,27.0,3.0,30.37,NNE,31,3.0,4.0,35,0.00,,,0.00,0,WeatherCatV1.14B232,2013-02-25 06:04:00,
2013-02-24 22:09:00,27.2,3.2,30.37,NW,318,4.0,4.0,35,0.00,,,0.00,0,WeatherCatV1.14B232,2013-02-25 06:09:00,
2013-02-24 22:14:00,27.3,5.6,30.37,NW,316,3.0,5.0,39,0.00,,,0.00,0,WeatherCatV1.14B232,2013-02-25 06:14:00,
2013-02-24 22:19:00,27.5,6.9,30.35,NW,305,4.0,4.0,41,0.00,,,0.00,0,WeatherCatV1.14B232,2013-02-25 06:19:00,
2013-02-24 22:24:00,27.6,7.0,30.35,NW,305,4.0,4.0,41,0.00,,,0.00,0,WeatherCatV1.14B232,2013-02-25 06:24:00,
2013-02-24 22:29:00,27.6,7.0,30.35,NW,305,4.0,4.0,41,0.00,,,0.00,0,WeatherCatV1.14B232,2013-02-25 06:29:00,
2013-02-24 22:34:00,27.6,7.0,30.33,WNW,303,4.0,5.0,41,0.00,,,0.00,0,WeatherCatV1.14B232,2013-02-25 06:34:00,
2013-02-24 22:39:00,27.8,6.7,30.33,WNW,301,5.0,6.0,40,0.00,,,0.00,0,WeatherCatV1.14B232,2013-02-25 06:39:00,
2013-02-24 22:44:00,27.6,6.5,30.33,WNW,303,6.0,6.0,40,0.00,,,0.00,0,WeatherCatV1.14B232,2013-02-25 06:44:00,
2013-02-24 22:49:00,27.6,6.5,30.33,WNW,293,5.0,7.0,40,0.00,,,0.00,0,WeatherCatV1.14B232,2013-02-25 06:49:00,
2013-02-24 22:54:00,27.6,6.5,30.33,WNW,301,5.0,6.0,40,0.00,,,0.00,0,WeatherCatV1.14B232,2013-02-25 06:54:00,
2013-02-24 22:59:00,27.5,6.9,30.33,WNW,297,4.0,5.0,41,0.00,,,0.00,0,WeatherCatV1.14B232,2013-02-25 06:59:00,
2013-02-24 23:04:00,27.3,6.7,30.33,WNW,302,4.0,6.0,41,0.00,,,0.00,0,WeatherCatV1.14B232,2013-02-25 07:04:00,
2013-02-24 23:09:00,27.3,6.2,30.33,NW,307,5.0,7.0,40,0.00,,,0.00,0,WeatherCatV1.14B232,2013-02-25 07:09:00,
2013-02-24 23:14:00,27.3,6.2,30.33,WNW,297,6.0,7.0,40,0.00,,,0.00,0,WeatherCatV1.14B232,2013-02-25 07:14:00,
2013-02-24 23:19:00,27.2,6.1,30.29,WNW,283,5.0,7.0,40,0.00,,,0.00,0,WeatherCatV1.14B232,2013-02-25 07:19:00,
2013-02-24 23:24:00,27.2,6.7,30.29,WNW,293,5.0,7.0,41,0.00,,,0.00,0,WeatherCatV1.14B232,2013-02-25 07:24:00,
2013-02-24 23:29:00,26.9,6.4,30.29,WNW,297,5.0,11.0,41,0.00,,,0.00,0,WeatherCatV1.14B232,2013-02-25 07:29:00,
2013-02-24 23:34:00,26.7,6.7,30.29,NW,304,5.0,10.0,42,0.00,,,0.00,0,WeatherCatV1.14B232,2013-02-25 07:34:00,
2013-02-24 23:39:00,26.6,6.6,30.29,WNW,283,5.0,9.0,42,0.00,,,0.00,0,WeatherCatV1.14B232,2013-02-25 07:39:00,
2013-02-24 23:44:00,26.4,6.5,30.29,WNW,288,7.0,9.0,42,0.00,,,0.00,0,WeatherCatV1.14B232,2013-02-25 07:44:00,
2013-02-24 23:49:00,26.3,6.4,30.31,NW,310,5.0,10.0,42,0.00,,,0.00,0,WeatherCatV1.14B232,2013-02-25 07:49:00,
2013-02-24 23:54:00,26.1,6.2,30.31,NW,305,7.0,10.0,42,0.00,,,0.00,0,WeatherCatV1.14B232,2013-02-25 07:54:00,
2013-02-24 23:59:00,26.1,6.2,30.31,WNW,283,9.0,11.0,42,0.00,,,0.00,0,WeatherCatV1.14B232,2013-02-25 07:59:00,